KENT RIDGE 1

Last updated on Sat Apr 13 2024 01:02:24 GMT+0100 (British Summer Time)

1 41167U 15077B 24103.37045771 .00004164 00000+0 18328-3 0 9992 2 41167 14.9826 29.1323 0010217 237.3909 122.5425 15.14392216459884
UTC large
Height (km)
Speed (km/s)
/
Latitude / Longitude
Inclination (degrees)
Orbital Period (minutes)
Azimuth
Elevation
Range (km)
Doppler Factor

Next 0 passes for location: London (51.5072 / 0.1276)

Sorry there are no passes over London.